Location: Sternwarte Stuttgart
(48.7670°N, 9.1830°E)
Time: 23:21:44
(UTC+02:00)

ISS - All Passes

Search period start: 02 September 2014 00:00
Search period end: 12 September 2014 00:00
Orbit: 413 x 419 km, 51.6° (Epoch: 02 September)

Date Brightness Start Highest point End Pass type
(mag) Time Alt. Az. Time Alt. Az. Time Alt. Az.
02 Sep - 11:12:50 10° SW 11:16:04 49° SSE 11:19:18 10° ENE daylight
02 Sep - 12:49:31 10° W 12:52:48 57° N 12:56:06 10° ENE daylight
02 Sep - 14:26:32 10° WNW 14:29:49 56° N 14:33:07 10° E daylight
02 Sep - 16:03:20 10° WNW 16:06:35 51° SSW 16:09:50 10° SE daylight
02 Sep - 17:42:18 10° SW 17:42:41 10° SW 17:43:04 10° SW daylight
03 Sep - 10:24:35 10° SSW 10:27:36 32° SE 10:30:38 10° E daylight
03 Sep - 12:00:52 10° W 12:04:11 68° NNW 12:07:31 10° ENE daylight
03 Sep - 13:37:55 10° WNW 13:41:11 50° N 13:44:27 10° E daylight
03 Sep - 15:14:44 10° WNW 15:18:04 74° SSW 15:21:23 10° ESE daylight
03 Sep - 16:52:13 10° W 16:54:21 16° SW 16:56:30 10° S daylight
04 Sep - 09:36:32 10° SSW 09:39:10 22° SE 09:41:47 10° E daylight
04 Sep - 11:12:15 10° WSW 11:15:35 88° NNW 11:18:56 10° ENE daylight
04 Sep - 12:49:16 10° WNW 12:52:31 49° N 12:55:47 10° ENE daylight
04 Sep - 14:26:08 10° WNW 14:29:29 82° NNE 14:32:49 10° ESE daylight
04 Sep - 16:03:11 10° W 16:05:57 24° SW 16:08:43 10° SSE daylight
05 Sep - 08:48:54 10° S 08:50:45 14° SE 08:52:37 10° ESE daylight
05 Sep - 10:23:41 10° WSW 10:27:00 67° SSE 10:30:18 10° ENE daylight
05 Sep - 12:00:34 10° W 12:03:50 51° N 12:07:06 10° ENE daylight
05 Sep - 13:37:31 10° WNW 13:40:50 64° NNE 13:44:09 10° E daylight
05 Sep - 15:14:22 10° WNW 15:17:28 36° SSW 15:20:34 10° SE daylight
06 Sep - 09:35:13 10° SW 09:38:25 46° SSE 09:41:37 10° ENE daylight
06 Sep - 11:11:50 10° W 11:15:08 58° N 11:18:26 10° ENE daylight
06 Sep - 12:48:51 10° WNW 12:52:08 54° N 12:55:25 10° E daylight
06 Sep - 14:25:38 10° WNW 14:28:55 55° SSW 14:32:10 10° SE daylight
06 Sep - 16:04:03 10° WSW 16:05:02 11° SW 16:06:01 10° SSW daylight
07 Sep - 08:46:54 10° SSW 08:49:51 30° SE 08:52:50 10° E daylight
07 Sep - 10:23:05 10° WSW 10:26:25 71° NNW 10:29:45 10° ENE daylight
07 Sep - 12:00:08 10° WNW 12:03:24 50° N 12:06:40 10° E daylight
07 Sep - 13:36:57 10° WNW 13:40:17 79° SSW 13:43:37 10° ESE daylight
07 Sep - 15:14:20 10° W 15:16:36 17° SW 15:18:52 10° S daylight
08 Sep - 07:58:48 10° S 08:01:20 20° SE 08:03:52 10° E daylight
08 Sep - 09:34:23 10° WSW 09:37:43 88° SSE 09:41:04 10° ENE daylight
08 Sep - 11:11:23 10° WNW 11:14:38 49° N 11:17:53 10° ENE daylight
08 Sep - 12:48:15 10° WNW 12:51:36 78° NNE 12:54:56 10° ESE daylight
08 Sep - 14:25:15 10° W 14:28:05 26° SW 14:30:55 10° SSE daylight
09 Sep - 07:11:11 10° SSE 07:12:50 13° SE 07:14:29 10° ESE daylight
09 Sep - 08:45:44 10° SW 08:49:02 63° SSE 08:52:20 10° ENE daylight
09 Sep - 10:22:34 10° W 10:25:51 52° N 10:29:07 10° ENE daylight
09 Sep - 11:59:32 10° WNW 12:02:51 62° NNE 12:06:09 10° E daylight
09 Sep - 13:36:22 10° WNW 13:39:30 39° SSW 13:42:38 10° SE daylight
10 Sep - 07:57:11 10° SW 08:00:22 42° SSE 08:03:33 10° ENE daylight
10 Sep - 09:33:44 10° W 09:37:03 60° NNW 09:40:21 10° ENE daylight
10 Sep - 11:10:46 10° WNW 11:14:03 53° N 11:17:20 10° E daylight
10 Sep - 12:47:33 10° WNW 12:50:50 59° SSW 12:54:07 10° SE daylight
10 Sep - 14:25:38 10° WSW 14:26:59 12° SW 14:28:20 10° SSW daylight
11 Sep - 07:08:49 10° SSW 07:11:43 28° SE 07:14:38 10° E daylight
11 Sep - 08:44:55 10° WSW 08:48:15 74° NNW 08:51:35 10° ENE daylight
11 Sep - 10:21:57 10° WNW 10:25:13 49° N 10:28:28 10° E daylight
11 Sep - 11:58:46 10° WNW 12:02:06 83° SSW 12:05:26 10° ESE daylight
11 Sep - 13:36:02 10° W 13:38:27 19° SW 13:40:51 10° S daylight
